Location: Degersen
(52.2871°N, 9.5716°E)
Time: 20:36:14
(UTC+00:00)

Cosmos 2154 Rocket - Pass Details

Date: 20 January 2026
Orbit: 965 x 997 km, 82.9° (Epoch: 16 February)

Event Time Altitude Azimuth Distance (km) Brightness Sun altitude
Rises 05:05:07 0° 201° (SSW) 3,690 6.9 -19.9°
Reaches altitude 10° 05:07:41 10° 205° (SSW) 2,741 6.2 -19.5°
Maximum altitude 05:13:54 61° 285° (WNW) 1,112 4.0 -18.6°
Drops below altitude 10° 05:20:06 10° 5° (N) 2,737 6.3 -17.7°
Sets 05:22:40 0° 9° (N) 3,684 7.0 -17.3°
